TimeCST,TemperatureF,Dew PointF,Humidity,Sea Level PressureIn,VisibilityMPH,Wind Direction,Wind SpeedMPH,Gust SpeedMPH,PrecipitationIn,Events,Conditions,WindDirDegrees,DateUTC
12:14 AM,21.2,19.4,93,30.13,2.0,ENE,15.0,-,N/A,Snow,Light Snow,60,2013-03-05 06:14:00
12:33 AM,21.2,17.6,86,30.13,4.0,ENE,12.7,-,N/A,Snow,Light Snow,60,2013-03-05 06:33:00
12:54 AM,21.2,17.6,86,30.13,5.0,NE,15.0,-,N/A,Snow,Light Snow,50,2013-03-05 06:54:00
1:14 AM,21.2,17.6,86,30.13,2.5,NE,15.0,-,N/A,Snow,Light Snow,50,2013-03-05 07:14:00
1:34 AM,21.2,17.6,86,30.14,1.2,NE,15.0,-,0.01,Snow,Light Snow,50,2013-03-05 07:34:00
1:54 AM,21.2,17.6,86,30.15,2.5,NE,16.1,-,0.01,Snow,Light Snow,40,2013-03-05 07:54:00
2:13 AM,21.2,17.6,86,30.15,4.0,NE,16.1,20.7,N/A,Snow,Light Snow,50,2013-03-05 08:13:00
2:34 AM,21.2,17.6,86,30.15,5.0,NE,15.0,21.9,N/A,Snow,Light Snow,50,2013-03-05 08:34:00
2:54 AM,21.2,17.6,86,30.15,2.5,NE,16.1,20.7,N/A,Snow,Light Snow,40,2013-03-05 08:54:00
3:13 AM,21.2,17.6,86,30.16,1.8,NE,13.8,-,N/A,Snow,Light Snow,40,2013-03-05 09:13:00
3:34 AM,19.4,17.6,93,30.16,1.5,NE,13.8,23.0,N/A,Snow,Light Snow,40,2013-03-05 09:34:00
3:54 AM,19.4,15.8,86,30.16,1.8,NE,15.0,-,N/A,Snow,Light Snow,40,2013-03-05 09:54:00
4:13 AM,19.4,15.8,86,30.16,2.0,NNE,13.8,-,N/A,Snow,Light Snow,30,2013-03-05 10:13:00
4:34 AM,19.4,15.8,86,30.17,1.5,NNE,13.8,19.6,N/A,Snow,Light Snow,30,2013-03-05 10:34:00
4:54 AM,19.4,15.8,86,30.17,1.8,NE,15.0,19.6,0.01,Snow,Light Snow,40,2013-03-05 10:54:00
5:11 AM,19.4,15.8,86,30.18,1.8,NE,15.0,18.4,N/A,Snow,Light Snow,40,2013-03-05 11:11:00
5:34 AM,19.4,15.8,86,30.19,1.8,NE,12.7,-,N/A,Snow,Light Snow,40,2013-03-05 11:34:00
5:54 AM,19.4,15.8,86,30.19,2.5,NE,11.5,-,0.01,Snow,Light Snow,40,2013-03-05 11:54:00
6:14 AM,19.4,15.8,86,30.20,1.8,NE,11.5,-,N/A,Snow,Light Snow,40,2013-03-05 12:14:00
7:14 AM,17.6,14.0,86,30.22,1.5,NNE,11.5,-,N/A,Snow,Light Snow,30,2013-03-05 13:14:00
7:34 AM,17.6,14.0,86,30.23,1.2,NE,12.7,-,N/A,Snow,Light Snow,40,2013-03-05 13:34:00
7:54 AM,17.6,14.0,86,30.24,1.0,NE,11.5,-,N/A,Snow,Light Snow,40,2013-03-05 13:54:00
8:14 AM,17.6,14.0,86,30.24,1.0,NNE,12.7,17.3,N/A,Snow,Light Snow,30,2013-03-05 14:14:00
8:34 AM,17.6,14.0,86,30.25,1.0,NNE,11.5,-,N/A,Snow,Light Snow,30,2013-03-05 14:34:00
8:54 AM,17.6,14.0,86,30.25,1.5,NNE,11.5,-,N/A,Snow,Light Snow,30,2013-03-05 14:54:00
9:14 AM,17.6,14.0,86,30.26,2.0,NNE,12.7,17.3,N/A,Snow,Light Snow,30,2013-03-05 15:14:00
9:34 AM,17.6,14.0,86,30.27,2.5,NNE,11.5,-,N/A,Snow,Light Snow,30,2013-03-05 15:34:00
9:53 AM,19.4,14.0,80,30.27,2.0,NNE,13.8,17.3,N/A,Snow,Light Snow,30,2013-03-05 15:53:00
10:14 AM,19.4,14.0,80,30.28,3.0,NNE,11.5,-,N/A,Snow,Light Snow,30,2013-03-05 16:14:00
10:33 AM,19.4,14.0,80,30.28,1.8,NE,12.7,17.3,N/A,Snow,Light Snow,40,2013-03-05 16:33:00
10:54 AM,19.4,14.0,80,30.29,3.0,NE,12.7,-,N/A,Snow,Light Snow,40,2013-03-05 16:54:00
11:14 AM,19.4,14.0,80,30.29,4.0,NE,12.7,-,N/A,Snow,Light Snow,40,2013-03-05 17:14:00
11:34 AM,19.4,15.8,86,30.29,1.2,NE,12.7,-,N/A,Snow,Light Snow,40,2013-03-05 17:34:00
11:54 AM,19.4,15.8,86,30.29,3.0,NE,11.5,16.1,0.01,Snow,Light Snow,40,2013-03-05 17:54:00
12:14 PM,19.4,14.0,80,30.30,1.5,NE,12.7,18.4,0.01,Snow,Light Snow,40,2013-03-05 18:14:00
12:34 PM,19.4,15.8,86,30.30,3.0,NE,13.8,19.6,0.02,Snow,Light Snow,40,2013-03-05 18:34:00
12:54 PM,19.4,15.8,86,30.30,2.5,NE,12.7,18.4,0.03,Snow,Light Snow,40,2013-03-05 18:54:00
1:14 PM,19.4,15.8,86,30.30,2.5,NNE,12.7,-,N/A,Snow,Light Snow,30,2013-03-05 19:14:00
1:34 PM,21.2,15.8,80,30.30,2.5,NE,12.7,17.3,N/A,Snow,Light Snow,40,2013-03-05 19:34:00
1:54 PM,21.2,15.8,80,30.30,2.5,NE,12.7,18.4,0.02,Snow,Light Snow,40,2013-03-05 19:54:00
2:14 PM,21.2,15.8,80,30.30,3.0,NE,13.8,-,0.01,,Haze,40,2013-03-05 20:14:00
2:34 PM,21.2,15.8,80,30.30,7.0,NNE,12.7,17.3,0.01,,Scattered Clouds,30,2013-03-05 20:34:00
2:54 PM,21.2,15.8,80,30.30,10.0,NNE,11.5,-,0.02,,Clear,30,2013-03-05 20:54:00
3:14 PM,21.2,15.8,80,30.31,7.0,NE,10.4,-,N/A,,Clear,40,2013-03-05 21:14:00
3:34 PM,21.2,15.8,80,30.32,3.0,NNE,8.1,-,N/A,,Haze,30,2013-03-05 21:34:00
3:54 PM,21.2,15.8,80,30.32,3.0,NNE,9.2,-,N/A,,Haze,30,2013-03-05 21:54:00
4:14 PM,21.2,15.8,80,30.32,2.5,NE,9.2,-,N/A,Snow,Light Snow,50,2013-03-05 22:14:00
4:34 PM,19.4,15.8,86,30.32,3.0,NE,10.4,-,N/A,Snow,Light Snow,50,2013-03-05 22:34:00
4:54 PM,19.4,15.8,86,30.32,4.0,NE,6.9,-,N/A,Snow,Light Snow,40,2013-03-05 22:54:00
5:14 PM,19.4,15.8,86,30.33,7.0,NNE,5.8,-,N/A,Snow,Light Snow,30,2013-03-05 23:14:00
5:33 PM,21.2,15.8,80,30.33,10.0,NNE,5.8,-,N/A,,Clear,20,2013-03-05 23:33:00
5:54 PM,19.4,15.8,86,30.33,5.0,NNE,8.1,-,N/A,Snow,Light Snow,20,2013-03-05 23:54:00
6:13 PM,19.4,15.8,86,30.34,10.0,NNE,6.9,-,N/A,Snow,Light Snow,30,2013-03-06 00:13:00
6:34 PM,19.4,15.8,86,30.34,5.0,NNE,5.8,-,N/A,Snow,Light Snow,20,2013-03-06 00:34:00
6:53 PM,19.4,15.8,86,30.34,2.5,North,5.8,-,N/A,Snow,Light Snow,10,2013-03-06 00:53:00
7:14 PM,19.4,15.8,86,30.34,3.0,North,5.8,-,N/A,Snow,Light Snow,10,2013-03-06 01:14:00
7:33 PM,17.6,14.0,86,30.34,4.0,North,4.6,-,N/A,Snow,Light Snow,10,2013-03-06 01:33:00
7:54 PM,17.6,14.0,86,30.34,3.0,North,4.6,-,N/A,Snow,Light Snow,10,2013-03-06 01:54:00
8:14 PM,17.6,14.0,86,30.35,4.0,North,3.5,-,N/A,Snow,Light Snow,360,2013-03-06 02:14:00
8:33 PM,17.6,12.2,79,30.36,7.0,Calm,Calm,-,N/A,Snow,Light Snow,0,2013-03-06 02:33:00
8:54 PM,15.8,12.2,86,30.36,7.0,Calm,Calm,-,N/A,Snow,Light Snow,0,2013-03-06 02:54:00
9:14 PM,15.8,12.2,86,30.36,10.0,North,3.5,-,N/A,Snow,Light Snow,10,2013-03-06 03:14:00
9:34 PM,14.0,10.4,86,30.36,10.0,Calm,Calm,-,N/A,,Mostly Cloudy,0,2013-03-06 03:34:00
9:54 PM,14.0,10.4,86,30.36,7.0,Calm,Calm,-,N/A,Snow,Light Snow,0,2013-03-06 03:54:00
10:14 PM,12.2,8.6,85,30.36,5.0,Calm,Calm,-,N/A,Snow,Light Snow,0,2013-03-06 04:14:00
10:34 PM,10.4,8.6,92,30.37,10.0,Calm,Calm,-,N/A,,Scattered Clouds,0,2013-03-06 04:34:00
10:54 PM,12.2,8.6,85,30.37,10.0,Calm,Calm,-,N/A,,Scattered Clouds,0,2013-03-06 04:54:00
11:14 PM,10.4,6.8,85,30.37,1.8,Calm,Calm,-,N/A,,Mist,0,2013-03-06 05:14:00
11:34 PM,12.2,8.6,85,30.36,10.0,Calm,Calm,-,N/A,,Clear,0,2013-03-06 05:34:00
11:54 PM,6.8,3.2,85,30.37,10.0,Calm,Calm,-,N/A,,Clear,0,2013-03-06 05:54:00